Regional Weather Roundup
Issued by NWS

Home | Current Version | Previous Version | Graphics & Text | Print | Product List | Glossary On
Versions: 1 2 3 4 5 6 7 8 9 10 11 12 13 14 15 16 17 18 19 20 21 22 23 24 25 26 27 28 29 30 31 32 33 34 35 36 37 38 39 40 41 42 43 44 45 46 47 48 49 50
000
ASUS44 KMEG 050010
RWRTN
TENNESSEE HOURLY STATE WEATHER ROUNDUP
NATIONAL WEATHER SERVICE MEMPHIS TN
600 PM CST WED MAR 04 2015

TNZ002-004-019-021-049-052-054-088>092-050100-
WEST TENNESSEE

CITY           SKY/WX    TMP DP  RH WIND       PRES   REMARKS
MEMPHIS INTL   SLEET     32  29  88 N16G25    30.10R FOG     WCI  21
NWS MEMPHIS      N/A     32 N/A N/A MISG        N/A
JACKSON        FRZ RAIN  33  29  85 N22G33    30.08R WCI  21
DYERSBURG      CLOUDY    27  14  59 N17       30.17R WCI  14
UNION CITY     CLOUDY    25  23  93 N16       30.14R WCI  12
PARIS          MOCLDY    25  21  86 N15       30.11S WCI  12
LEXINGTON      CLOUDY    32  30  93 N13       30.04S WCI  22
SAVANNAH       CLOUDY    36  36 100 N12       30.03R WCI  27
$$

TNZ008-025-027-028-033-062-065-066-050100-
NORTH MIDDLE TENNESSEE

CITY           SKY/WX    TMP DP  RH WIND       PRES   REMARKS
NASHVILLE      RAIN      35  33  92 N13       30.08R FOG     WCI  26
CLARKSVILLE    MIX PCPN  29  27  92 N15       30.12R FOG     WCI  18
SMYRNA         RAIN      36  36 100 N17       30.06R FOG     WCI  25
COOKEVILLE     CLOUDY    41  39  93 NE9       29.98R
CROSSVILLE     CLOUDY    44  41  89 N12       29.91R
$$

TNZ061-075-076-078-094-096-097-050100-
SOUTH MIDDLE TENNESSEE

CITY           SKY/WX    TMP DP  RH WIND       PRES   REMARKS
FAYETTEVILLE   CLOUDY    39  37  93 N13         N/A  WCI  32
TULLAHOMA      CLOUDY    37  37 100 N16       29.96R WCI  28
WINCHESTER     CLOUDY    45  43  93 VRB7      29.95R
MCMINNVILLE    CLOUDY    43  43 100 N10       29.97R
COLUMBIA       CLOUDY   N/A N/A N/A N8        30.02R
SHELBYVILLE    CLOUDY    39  39 100 N17       30.01R WCI  30
$$

TNZ017-018-042-046-047-050100-
NORTHEAST TENNESSEE

CITY           SKY/WX    TMP DP  RH WIND       PRES   REMARKS
TRI CITIES     CLOUDY    55  50  83 N8        29.84R
ELIZABETHTON   CLOUDY    59  54  82 SW10      29.82R
$$

TNZ012-013-036-069-073-074-050100-
CENTRAL EAST TENNESSEE

CITY           SKY/WX    TMP DP  RH WIND       PRES   REMARKS
KNOXVILLE      CLOUDY    60  53  77 NW10G31   29.81R
OAK RIDGE      LGT RAIN  53  51  93 NE7       29.86R
GATLINBURG     CLOUDY    72  52  49 SW7       29.78R
MORRISTOWN     MOCLDY    57  55  94 NW8       29.85R
$$

TNZ083-085-099-050100-
SOUTHEAST TENNESSEE

CITY           SKY/WX    TMP DP  RH WIND       PRES   REMARKS
CHATTANOOGA    MOCLDY    72  60  66 S8        29.82R
$$

SKY/WX REPORTED AS FAIR MEANS FEW OR NO CLOUDS BELOW
12 THOUSAND FEET.




USA.gov is the U.S. government's official web portal to all federal, state and local government web resources and services.